This is the latest recevied weather packets stored in our database for station/object KD2RHT-13. If no packets are shown the sender has not sent any weather packets the latest 10 day(s).
| Time | Temp. | Humidity | Pressure | Rain* | Wind** | Luminosity | Snow |
|---|---|---|---|---|---|---|---|
| 1777637714 | 7.78° C | 76% | 1015.6 hPa | 0 mm | - | 252 W/m² | - |
| 1777637405 | 7.22° C | 78% | 1015.2 hPa | 0 mm | - | 226 W/m² | - |
| 1777637102 | 7.22° C | 80% | 1015.2 hPa | 0 mm | - | 210 W/m² | - |
| 1777636797 | 7.22° C | 80% | 1015.6 hPa | 0 mm | - | 193 W/m² | - |
| 1777636495 | 6.67° C | 82% | 1015.2 hPa | 0 mm | - | 187 W/m² | - |
| 1777636190 | 6.67° C | 81% | 1015.2 hPa | 0 mm | - | 147 W/m² | - |
| 1777635885 | 6.67° C | 81% | 1015.2 hPa | 0 mm | - | 171 W/m² | - |
| 1777635582 | 6.67° C | 82% | 1015.2 hPa | 0 mm | - | 166 W/m² | - |
| 1777635278 | 6.11° C | 85% | 1015.2 hPa | 0 mm | - | 110 W/m² | - |
| 1777634975 | 6.11° C | 85% | 1015.2 hPa | 0 mm | - | 339 W/m² | - |
| 1777634672 | 5.56° C | 90% | 1015.2 hPa | 0 mm | - | 122 W/m² | - |
| 1777634369 | 5° C | 97% | 1015.2 hPa | 0 mm | - | 95 W/m² | - |
| 1777634066 | 5° C | 98% | 1014.9 hPa | 0 mm | - | 78 W/m² | - |
| 1777633762 | 3.89° C | 99% | 1014.9 hPa | 0 mm | - | 56 W/m² | - |
| 1777633460 | 3.33° C | 99% | 1014.9 hPa | 0 mm | - | 45 W/m² | - |
| 1777633158 | 1.67° C | 99% | 1014.9 hPa | 0 mm | - | 39 W/m² | - |
| 1777632854 | 1.67° C | 99% | 1014.9 hPa | 0 mm | - | 32 W/m² | - |
| 1777632549 | 1.11° C | 99% | 1014.9 hPa | 0 mm | - | 24 W/m² | - |
| 1777632248 | 1.11° C | 99% | 1014.5 hPa | 0 mm | - | 22 W/m² | - |
| 1777631944 | 1.11° C | 99% | 1014.9 hPa | 0 mm | - | 20 W/m² | - |
| 1777631643 | 0.56° C | 99% | 1014.9 hPa | 0 mm | - | 18 W/m² | - |
| 1777631339 | 0.56° C | 99% | 1014.9 hPa | 0 mm | - | 16 W/m² | - |
| 1777631036 | 0.56° C | 99% | 1014.5 hPa | 0 mm | - | 12 W/m² | - |
| 1777630733 | 0.56° C | 99% | 1014.9 hPa | 0 mm | - | 10 W/m² | - |
| 1777630429 | 1.11° C | 99% | 1014.9 hPa | 0 mm | - | 8 W/m² | - |
* Rain latest hour (hover to see other rain measurements)
** Current wind speed in m/s (hover to see current wind gust speed)